Find Starlink 3843

NORAD ID: 52341 Int'l Des: 2022-045 Owner: SPXS Country: US Constellation: starlink operational
LEOCIRCULAR

当前视图

正在加载3D地球...

About Starlink 3843

Starlink 3843 (NORAD 52341) is a starlink constellation satellite (v1.5) launched Apr 29, 2022 by SPXS of US. It operates in LEO, CIRCULAR orbit with a mass of 297.00 kg.

即将过境

Passes for default location (London). Set your location on the main map for personalized predictions.

高度历史

Loading altitude history...

两行轨道根数

1 52341U 22045L 26262.83335647 .00050891 00000-0 14611-2 0 9993
2 52341 53.1610 54.6192 0000943 75.2468 321.2182 15.35375673 5838
Epoch: Sep 19, 2026 • Age: 4 hours

当前状态

高度 477.4 km
远地点 / 近地点 N/A
速度 7.63 km/s
星下点 -49.71°S, 9.88°W
发射日期 Apr 29, 2022
运行时间 4.3 years
类型 internet

技术详情

分类 Payload
质量 297.00 kg
干质量 275.00 kg
长度 0.20 m
跨度 9.00 m
形状 ? Box + pan
制造商 SPXS
平台类型 Starlink
阶段状态 In Orbit
所有者/国家 SPXS/US

Most Searched